Year,Month,Day,Hour,Minute,Value (Times are PST for temperature in C)
2014,08,23,00,00,19.70
2014,08,23,00,01,19.60
2014,08,23,00,02,19.60
2014,08,23,00,03,19.60
2014,08,23,00,04,19.50
2014,08,23,00,05,19.50
2014,08,23,00,06,19.50
2014,08,23,00,07,19.50
2014,08,23,00,08,19.50
2014,08,23,00,09,19.60
2014,08,23,00,10,19.60
2014,08,23,00,11,19.60
2014,08,23,00,12,19.60
2014,08,23,00,13,19.60
2014,08,23,00,14,19.60
2014,08,23,00,15,19.60
2014,08,23,00,16,19.50
2014,08,23,00,17,19.50
2014,08,23,00,18,19.50
2014,08,23,00,19,19.40
2014,08,23,00,20,19.40
2014,08,23,00,21,19.40
2014,08,23,00,22,19.30
2014,08,23,00,23,19.30
2014,08,23,00,24,19.30
2014,08,23,00,25,19.20
2014,08,23,00,26,19.20
2014,08,23,00,27,19.10
2014,08,23,00,28,19.10
2014,08,23,00,29,19.10
2014,08,23,00,30,19.00
2014,08,23,00,31,19.00
2014,08,23,00,32,18.90
2014,08,23,00,33,18.90
2014,08,23,00,34,18.90
2014,08,23,00,35,19.00
2014,08,23,00,36,19.00
2014,08,23,00,37,19.00
2014,08,23,00,38,19.10
2014,08,23,00,39,19.10
2014,08,23,00,40,19.10
2014,08,23,00,41,19.10
2014,08,23,00,42,19.10
2014,08,23,00,43,19.20
2014,08,23,00,44,19.20
2014,08,23,00,45,19.20
2014,08,23,00,46,19.20
2014,08,23,00,47,19.20
2014,08,23,00,48,19.20
2014,08,23,00,49,19.10
2014,08,23,00,50,19.10
2014,08,23,00,51,19.10
2014,08,23,00,52,19.10
2014,08,23,00,53,19.10
2014,08,23,00,54,19.10
2014,08,23,00,55,19.10
2014,08,23,00,56,19.10
2014,08,23,00,57,19.10
2014,08,23,00,58,19.10
2014,08,23,00,59,19.00
2014,08,23,01,00,19.00
2014,08,23,01,01,18.90
2014,08,23,01,02,18.90
2014,08,23,01,03,18.90
2014,08,23,01,04,18.90
2014,08,23,01,05,18.80
2014,08,23,01,06,18.80
2014,08,23,01,07,18.80
2014,08,23,01,08,18.80
2014,08,23,01,09,18.80
2014,08,23,01,10,18.80
2014,08,23,01,11,18.70
2014,08,23,01,12,18.70
2014,08,23,01,13,18.70
2014,08,23,01,14,18.70
2014,08,23,01,15,18.70
2014,08,23,01,16,18.70
2014,08,23,01,17,18.70
2014,08,23,01,18,18.70
2014,08,23,01,19,18.70
2014,08,23,01,20,18.70
2014,08,23,01,21,18.70
2014,08,23,01,22,18.70
2014,08,23,01,23,18.70
2014,08,23,01,24,18.60
2014,08,23,01,25,18.60
2014,08,23,01,26,18.60
2014,08,23,01,27,18.60
2014,08,23,01,28,18.50
2014,08,23,01,29,18.50
2014,08,23,01,30,18.40
2014,08,23,01,31,18.40
2014,08,23,01,32,18.30
2014,08,23,01,33,18.30
2014,08,23,01,34,18.20
2014,08,23,01,35,18.20
2014,08,23,01,36,18.20
2014,08,23,01,37,18.10
2014,08,23,01,38,18.10
2014,08,23,01,39,18.10
2014,08,23,01,40,18.00
2014,08,23,01,41,18.00
2014,08,23,01,42,17.90
2014,08,23,01,43,17.90
2014,08,23,01,44,17.80
2014,08,23,01,45,17.80
2014,08,23,01,46,17.80
2014,08,23,01,47,17.70
2014,08,23,01,48,17.70
2014,08,23,01,49,17.70
2014,08,23,01,50,17.60
2014,08,23,01,51,17.60
2014,08,23,01,52,17.60
2014,08,23,01,53,17.60
2014,08,23,01,54,17.50
2014,08,23,01,55,17.40
2014,08,23,01,56,17.40
2014,08,23,01,57,17.40
2014,08,23,01,58,17.30
2014,08,23,01,59,17.30
2014,08,23,02,00,17.30
2014,08,23,02,01,17.20
2014,08,23,02,02,17.20
2014,08,23,02,03,17.20
2014,08,23,02,04,17.20
2014,08,23,02,05,17.10
2014,08,23,02,06,17.10
2014,08,23,02,07,17.10
2014,08,23,02,08,17.00
2014,08,23,02,09,17.00
2014,08,23,02,10,17.00
2014,08,23,02,11,16.90
2014,08,23,02,12,16.90
2014,08,23,02,13,16.90
2014,08,23,02,14,16.90
2014,08,23,02,15,16.90
2014,08,23,02,16,16.90
2014,08,23,02,17,16.90
2014,08,23,02,18,16.90
2014,08,23,02,19,16.90
2014,08,23,02,20,16.80
2014,08,23,02,21,16.80
2014,08,23,02,22,16.80
2014,08,23,02,23,16.80
2014,08,23,02,24,16.80
2014,08,23,02,25,16.80
2014,08,23,02,26,16.80
2014,08,23,02,27,16.80
2014,08,23,02,28,16.80
2014,08,23,02,29,16.80
2014,08,23,02,30,16.80
2014,08,23,02,31,16.70
2014,08,23,02,32,16.70
2014,08,23,02,33,16.70
2014,08,23,02,34,16.70
2014,08,23,02,35,16.70
2014,08,23,02,36,16.70
2014,08,23,02,37,16.70
2014,08,23,02,38,16.70
2014,08,23,02,39,16.60
2014,08,23,02,40,16.60
2014,08,23,02,41,16.60
2014,08,23,02,42,16.60
2014,08,23,02,43,16.60
2014,08,23,02,44,16.60
2014,08,23,02,45,16.60
2014,08,23,02,46,16.60
2014,08,23,02,47,16.60
2014,08,23,02,48,16.50
2014,08,23,02,49,16.50
2014,08,23,02,50,16.50
2014,08,23,02,51,16.50
2014,08,23,02,52,16.40
2014,08,23,02,53,16.40
2014,08,23,02,54,16.40
2014,08,23,02,55,16.40
2014,08,23,02,56,16.40
2014,08,23,02,57,16.40
2014,08,23,02,58,16.40
2014,08,23,02,59,16.40
2014,08,23,03,00,16.40
2014,08,23,03,01,16.40
2014,08,23,03,02,16.40
2014,08,23,03,03,16.40
2014,08,23,03,04,16.40
2014,08,23,03,05,16.40
2014,08,23,03,06,16.40
2014,08,23,03,07,16.30
2014,08,23,03,08,16.40
2014,08,23,03,09,16.40
2014,08,23,03,10,16.40
2014,08,23,03,11,16.40
2014,08,23,03,12,16.50
2014,08,23,03,13,16.50
2014,08,23,03,14,16.60
2014,08,23,03,15,16.60
2014,08,23,03,16,16.70
2014,08,23,03,17,16.70
2014,08,23,03,18,16.70
2014,08,23,03,19,16.80
2014,08,23,03,20,16.80
2014,08,23,03,21,16.80
2014,08,23,03,22,16.80
2014,08,23,03,23,16.80
2014,08,23,03,24,16.80
2014,08,23,03,25,16.80
2014,08,23,03,26,16.80
2014,08,23,03,27,16.80
2014,08,23,03,28,16.70
2014,08,23,03,29,16.70
2014,08,23,03,30,16.70
2014,08,23,03,31,16.70
2014,08,23,03,32,16.60
2014,08,23,03,33,16.60
2014,08,23,03,34,16.60
2014,08,23,03,35,16.60
2014,08,23,03,36,16.50
2014,08,23,03,37,16.50
2014,08,23,03,38,16.40
2014,08,23,03,39,16.40
2014,08,23,03,40,16.40
2014,08,23,03,41,16.40
2014,08,23,03,42,16.40
2014,08,23,03,43,16.40
2014,08,23,03,44,16.40
2014,08,23,03,45,16.40
2014,08,23,03,46,16.40
2014,08,23,03,47,16.40
2014,08,23,03,48,16.40
2014,08,23,03,49,16.40
2014,08,23,03,50,16.50
2014,08,23,03,51,16.50
2014,08,23,03,52,16.50
2014,08,23,03,53,16.50
2014,08,23,03,54,16.50
2014,08,23,03,55,16.50
2014,08,23,03,56,16.50
2014,08,23,03,57,16.40
2014,08,23,03,58,16.40
2014,08,23,03,59,16.40
2014,08,23,04,00,16.40
2014,08,23,04,01,16.30
2014,08,23,04,02,16.30
2014,08,23,04,03,16.30
2014,08,23,04,04,16.30
2014,08,23,04,05,16.30
2014,08,23,04,06,16.20
2014,08,23,04,07,16.20
2014,08,23,04,08,16.20
2014,08,23,04,09,16.20
2014,08,23,04,10,16.10
2014,08,23,04,11,16.10
2014,08,23,04,12,16.10
2014,08,23,04,13,16.00
2014,08,23,04,14,16.00
2014,08,23,04,15,16.00
2014,08,23,04,16,15.90
2014,08,23,04,17,15.90
2014,08,23,04,18,15.90
2014,08,23,04,19,15.90
2014,08,23,04,20,15.90
2014,08,23,04,21,15.90
2014,08,23,04,22,15.90
2014,08,23,04,23,15.90
2014,08,23,04,24,15.90
2014,08,23,04,25,15.90
2014,08,23,04,26,15.90
2014,08,23,04,27,15.90
2014,08,23,04,28,15.90
2014,08,23,04,29,15.90
2014,08,23,04,30,15.90
2014,08,23,04,31,15.90
2014,08,23,04,32,15.90
2014,08,23,04,33,15.90
2014,08,23,04,34,15.90
2014,08,23,04,35,15.90
2014,08,23,04,36,15.90
2014,08,23,04,37,16.00
2014,08,23,04,38,16.00
2014,08,23,04,39,16.00
2014,08,23,04,40,16.00
2014,08,23,04,41,16.00
2014,08,23,04,42,16.00
2014,08,23,04,43,16.10
2014,08,23,04,44,16.10
2014,08,23,04,45,16.10
2014,08,23,04,46,16.10
2014,08,23,04,47,16.10
2014,08,23,04,48,16.00
2014,08,23,04,49,16.00
2014,08,23,04,50,16.00
2014,08,23,04,51,16.00
2014,08,23,04,52,16.00
2014,08,23,04,53,15.90
2014,08,23,04,54,15.90
2014,08,23,04,55,15.90
2014,08,23,04,56,15.90
2014,08,23,04,57,15.90
2014,08,23,04,58,15.90
2014,08,23,04,59,15.80
2014,08,23,05,00,15.80
2014,08,23,05,01,15.80
2014,08,23,05,02,15.80
2014,08,23,05,03,15.80
2014,08,23,05,04,15.80
2014,08,23,05,05,15.80
2014,08,23,05,06,15.80
2014,08,23,05,07,15.80
2014,08,23,05,08,15.80
2014,08,23,05,09,15.80
2014,08,23,05,10,15.80
2014,08,23,05,11,15.80
2014,08,23,05,12,15.80
2014,08,23,05,13,15.80
2014,08,23,05,14,15.80
2014,08,23,05,15,15.80
2014,08,23,05,16,15.80
2014,08,23,05,17,15.70
2014,08,23,05,18,15.70
2014,08,23,05,19,15.70
2014,08,23,05,20,15.70
2014,08,23,05,21,15.70
2014,08,23,05,22,15.60
2014,08,23,05,23,15.60
2014,08,23,05,24,15.60
2014,08,23,05,25,15.60
2014,08,23,05,26,15.50
2014,08,23,05,27,15.50
2014,08,23,05,28,15.40
2014,08,23,05,29,15.40
2014,08,23,05,30,15.40
2014,08,23,05,31,15.40
2014,08,23,05,32,15.40
2014,08,23,05,33,15.30
2014,08,23,05,34,15.30
2014,08,23,05,35,15.30
2014,08,23,05,36,15.30
2014,08,23,05,37,15.20
2014,08,23,05,38,15.20
2014,08,23,05,39,15.10
2014,08,23,05,40,15.00
2014,08,23,05,41,14.90
2014,08,23,05,42,14.80
2014,08,23,05,43,14.80
2014,08,23,05,44,14.80
2014,08,23,05,45,14.70
2014,08,23,05,46,14.70
2014,08,23,05,47,14.60
2014,08,23,05,48,14.60
2014,08,23,05,49,14.60
2014,08,23,05,50,14.60
2014,08,23,05,51,14.60
2014,08,23,05,52,14.60
2014,08,23,05,53,14.60
2014,08,23,05,54,14.70
2014,08,23,05,55,14.70
2014,08,23,05,56,14.80
2014,08,23,05,57,14.80
2014,08,23,05,58,14.90
2014,08,23,05,59,14.90
2014,08,23,06,00,14.90
2014,08,23,06,01,15.00
2014,08,23,06,02,15.00
2014,08,23,06,03,15.10
2014,08,23,06,04,15.10
2014,08,23,06,05,15.10
2014,08,23,06,06,15.10
2014,08,23,06,07,15.10
2014,08,23,06,08,15.10
2014,08,23,06,09,15.20
2014,08,23,06,10,15.20
2014,08,23,06,11,15.20
2014,08,23,06,12,15.20
2014,08,23,06,13,15.20
2014,08,23,06,14,15.20
2014,08,23,06,15,15.10
2014,08,23,06,16,15.10
2014,08,23,06,17,15.10
2014,08,23,06,18,15.10
2014,08,23,06,19,15.10
2014,08,23,06,20,15.10
2014,08,23,06,21,15.10
2014,08,23,06,22,15.00
2014,08,23,06,23,15.00
2014,08,23,06,24,15.00
2014,08,23,06,25,14.90
2014,08,23,06,26,14.90
2014,08,23,06,27,14.90
2014,08,23,06,28,14.90
2014,08,23,06,29,14.90
2014,08,23,06,30,14.90
2014,08,23,06,31,14.80
2014,08,23,06,32,14.80
2014,08,23,06,33,14.80
2014,08,23,06,34,14.80
2014,08,23,06,35,14.80
2014,08,23,06,36,14.80
2014,08,23,06,37,14.80
2014,08,23,06,38,14.80
2014,08,23,06,39,14.80
2014,08,23,06,40,14.70
2014,08,23,06,41,14.70
2014,08,23,06,42,14.70
2014,08,23,06,43,14.70
2014,08,23,06,44,14.70
2014,08,23,06,45,14.70
2014,08,23,06,46,14.70
2014,08,23,06,47,14.60
2014,08,23,06,48,14.60
2014,08,23,06,49,14.60
2014,08,23,06,50,14.50
2014,08,23,06,51,14.50
2014,08,23,06,52,14.40
2014,08,23,06,53,14.40
2014,08,23,06,54,14.40
2014,08,23,06,55,14.40
2014,08,23,06,56,14.40
2014,08,23,06,57,14.40
2014,08,23,06,58,14.40
2014,08,23,06,59,14.40
2014,08,23,07,00,14.40
2014,08,23,07,01,14.40
2014,08,23,07,02,14.40
2014,08,23,07,03,14.40
2014,08,23,07,04,14.40
2014,08,23,07,05,14.40
2014,08,23,07,06,14.50
2014,08,23,07,07,14.50
2014,08,23,07,08,14.50
2014,08,23,07,09,14.50
2014,08,23,07,10,14.60
2014,08,23,07,11,14.60
2014,08,23,07,12,14.60
2014,08,23,07,13,14.70
2014,08,23,07,14,14.70
2014,08,23,07,15,14.70
2014,08,23,07,16,14.80
2014,08,23,07,17,14.80
2014,08,23,07,18,14.80
2014,08,23,07,19,14.90
2014,08,23,07,20,14.90
2014,08,23,07,21,15.00
2014,08,23,07,22,15.10
2014,08,23,07,23,15.10
2014,08,23,07,24,15.20
2014,08,23,07,25,15.30
2014,08,23,07,26,15.40
2014,08,23,07,27,15.50
2014,08,23,07,28,15.60
2014,08,23,07,29,15.70
2014,08,23,07,30,15.80
2014,08,23,07,31,15.90
2014,08,23,07,32,16.10
2014,08,23,07,33,16.20
2014,08,23,07,34,16.30
2014,08,23,07,35,16.50
2014,08,23,07,36,16.60
2014,08,23,07,37,16.70
2014,08,23,07,38,16.80
2014,08,23,07,39,16.80
2014,08,23,07,40,16.90
2014,08,23,07,41,17.00
2014,08,23,07,42,17.00
2014,08,23,07,43,17.10
2014,08,23,07,44,17.20
2014,08,23,07,45,17.30
2014,08,23,07,46,17.40
2014,08,23,07,47,17.50
2014,08,23,07,48,17.70
2014,08,23,07,49,17.80
2014,08,23,07,50,17.80
2014,08,23,07,51,17.90
2014,08,23,07,52,17.90
2014,08,23,07,53,17.90
2014,08,23,07,54,18.00
2014,08,23,07,55,18.00
2014,08,23,07,56,18.10
2014,08,23,07,57,18.10
2014,08,23,07,58,18.00
2014,08,23,07,59,18.00
2014,08,23,08,00,18.00
2014,08,23,08,01,17.80
2014,08,23,08,02,17.70
2014,08,23,08,03,17.60
2014,08,23,08,04,17.50
2014,08,23,08,05,17.40
2014,08,23,08,06,17.30
2014,08,23,08,07,17.20
2014,08,23,08,08,17.10
2014,08,23,08,09,17.00
2014,08,23,08,10,17.00
2014,08,23,08,11,16.90
2014,08,23,08,12,16.90
2014,08,23,08,13,16.80
2014,08,23,08,14,16.80
2014,08,23,08,15,16.80
2014,08,23,08,16,16.70
2014,08,23,08,17,16.70
2014,08,23,08,18,16.70
2014,08,23,08,19,16.60
2014,08,23,08,20,16.60
2014,08,23,08,21,16.60
2014,08,23,08,22,16.50
2014,08,23,08,23,16.40
2014,08,23,08,24,16.40
2014,08,23,08,25,16.40
2014,08,23,08,26,16.40
2014,08,23,08,27,16.40
2014,08,23,08,28,16.40
2014,08,23,08,29,16.40
2014,08,23,08,30,16.50
2014,08,23,08,31,16.50
2014,08,23,08,32,16.60
2014,08,23,08,33,16.60
2014,08,23,08,34,16.70
2014,08,23,08,35,16.70
2014,08,23,08,36,16.70
2014,08,23,08,37,16.80
2014,08,23,08,38,16.80
2014,08,23,08,39,16.80
2014,08,23,08,40,16.90
2014,08,23,08,41,16.90
2014,08,23,08,42,17.00
2014,08,23,08,43,17.00
2014,08,23,08,44,17.10
2014,08,23,08,45,17.10
2014,08,23,08,46,17.20
2014,08,23,08,47,17.30
2014,08,23,08,48,17.40
2014,08,23,08,49,17.50
2014,08,23,08,50,17.60
2014,08,23,08,51,17.70
2014,08,23,08,52,17.80
2014,08,23,08,53,17.80
2014,08,23,08,54,17.90
2014,08,23,08,55,17.90
2014,08,23,08,56,17.90
2014,08,23,08,57,17.90
2014,08,23,08,58,18.00
2014,08,23,08,59,18.00
2014,08,23,09,00,18.00
2014,08,23,09,01,18.10
2014,08,23,09,02,18.10
2014,08,23,09,03,18.10
2014,08,23,09,04,18.20
2014,08,23,09,05,18.30
2014,08,23,09,06,18.30
2014,08,23,09,07,18.50
2014,08,23,09,08,18.60
2014,08,23,09,09,18.70
2014,08,23,09,10,18.80
2014,08,23,09,11,18.90
2014,08,23,09,12,19.00
2014,08,23,09,13,19.10
2014,08,23,09,14,19.20
2014,08,23,09,15,19.20
2014,08,23,09,16,19.20
2014,08,23,09,17,19.20
2014,08,23,09,18,19.20
2014,08,23,09,19,19.30
2014,08,23,09,20,19.30
2014,08,23,09,21,19.30
2014,08,23,09,22,19.30
2014,08,23,09,23,19.40
2014,08,23,09,24,19.50
2014,08,23,09,25,19.60
2014,08,23,09,26,19.70
2014,08,23,09,27,19.80
2014,08,23,09,28,19.80
2014,08,23,09,29,19.90
2014,08,23,09,30,20.00
2014,08,23,09,31,20.10
2014,08,23,09,32,20.20
2014,08,23,09,33,20.30
2014,08,23,09,34,20.30
2014,08,23,09,35,20.30
2014,08,23,09,36,20.30
2014,08,23,09,37,20.30
2014,08,23,09,38,20.40
2014,08,23,09,39,20.40
2014,08,23,09,40,20.50
2014,08,23,09,41,20.50
2014,08,23,09,42,20.60
2014,08,23,09,43,20.60
2014,08,23,09,44,20.60
2014,08,23,09,45,20.60
2014,08,23,09,46,20.60
2014,08,23,09,47,20.60
2014,08,23,09,48,20.70
2014,08,23,09,49,20.70
2014,08,23,09,50,20.70
2014,08,23,09,51,20.80
2014,08,23,09,52,20.80
2014,08,23,09,53,20.80
2014,08,23,09,54,20.90
2014,08,23,09,55,20.90
2014,08,23,09,56,21.00
2014,08,23,09,57,21.10
2014,08,23,09,58,21.10
2014,08,23,09,59,21.20
2014,08,23,10,00,21.20
2014,08,23,10,01,21.30
2014,08,23,10,02,21.30
2014,08,23,10,03,21.40
2014,08,23,10,04,21.40
2014,08,23,10,05,21.40
2014,08,23,10,06,21.40
2014,08,23,10,07,21.50
2014,08,23,10,08,21.50
2014,08,23,10,09,21.50
2014,08,23,10,10,21.50
2014,08,23,10,11,21.60
2014,08,23,10,12,21.60
2014,08,23,10,13,21.60
2014,08,23,10,14,21.70
2014,08,23,10,15,21.70
2014,08,23,10,16,21.70
2014,08,23,10,17,21.70
2014,08,23,10,18,21.70
2014,08,23,10,19,21.70
2014,08,23,10,20,21.70
2014,08,23,10,21,21.60
2014,08,23,10,22,21.50
2014,08,23,10,23,21.40
2014,08,23,10,24,21.30
2014,08,23,10,25,21.20
2014,08,23,10,26,21.10
2014,08,23,10,27,21.00
2014,08,23,10,28,21.00
2014,08,23,10,29,20.90
2014,08,23,10,30,20.90
2014,08,23,10,31,20.90
2014,08,23,10,32,21.00
2014,08,23,10,33,21.00
2014,08,23,10,34,21.10
2014,08,23,10,35,21.10
2014,08,23,10,36,21.10
2014,08,23,10,37,21.10
2014,08,23,10,38,21.00
2014,08,23,10,39,20.90
2014,08,23,10,40,20.90
2014,08,23,10,41,20.90
2014,08,23,10,42,21.00
2014,08,23,10,43,21.10
2014,08,23,10,44,21.10
2014,08,23,10,45,21.10
2014,08,23,10,46,21.10
2014,08,23,10,47,21.10
2014,08,23,10,48,21.00
2014,08,23,10,49,21.00
2014,08,23,10,50,21.00
2014,08,23,10,51,21.00
2014,08,23,10,52,21.10
2014,08,23,10,53,21.10
2014,08,23,10,54,21.10
2014,08,23,10,55,21.10
2014,08,23,10,56,21.10
2014,08,23,10,57,21.10
2014,08,23,10,58,21.10
2014,08,23,10,59,21.10
2014,08,23,11,00,21.10
2014,08,23,11,01,21.00
2014,08,23,11,02,21.00
2014,08,23,11,03,21.00
2014,08,23,11,04,20.90
2014,08,23,11,05,20.90
2014,08,23,11,06,20.90
2014,08,23,11,07,20.90
2014,08,23,11,08,20.90
2014,08,23,11,09,21.00
2014,08,23,11,10,21.00
2014,08,23,11,11,21.10
2014,08,23,11,12,21.10
2014,08,23,11,13,21.10
2014,08,23,11,14,21.10
2014,08,23,11,15,21.10
2014,08,23,11,16,21.10
2014,08,23,11,17,21.20
2014,08,23,11,18,21.20
2014,08,23,11,19,21.20
2014,08,23,11,20,21.20
2014,08,23,11,21,21.20
2014,08,23,11,22,21.20
2014,08,23,11,23,21.20
2014,08,23,11,24,21.20
2014,08,23,11,25,21.20
2014,08,23,11,26,21.20
2014,08,23,11,27,21.20
2014,08,23,11,28,21.20
2014,08,23,11,29,21.30
2014,08,23,11,30,21.30
2014,08,23,11,31,21.30
2014,08,23,11,32,21.30
2014,08,23,11,33,21.30
2014,08,23,11,34,21.30
2014,08,23,11,35,21.30
2014,08,23,11,36,21.30
2014,08,23,11,37,21.40
2014,08,23,11,38,21.40
2014,08,23,11,39,21.40
2014,08,23,11,40,21.40
2014,08,23,11,41,21.40
2014,08,23,11,42,21.40
2014,08,23,11,43,21.40
2014,08,23,11,44,21.50
2014,08,23,11,45,21.50
2014,08,23,11,46,21.60
2014,08,23,11,47,21.60
2014,08,23,11,48,21.60
2014,08,23,11,49,21.60
2014,08,23,11,50,21.60
2014,08,23,11,51,21.60
2014,08,23,11,52,21.60
2014,08,23,11,53,21.60
2014,08,23,11,54,21.60
2014,08,23,11,55,21.60
2014,08,23,11,56,21.60
2014,08,23,11,57,21.50
2014,08,23,11,58,21.50
2014,08,23,11,59,21.50
2014,08,23,12,00,21.60
2014,08,23,12,01,21.60
2014,08,23,12,02,21.60
2014,08,23,12,03,21.60
2014,08,23,12,04,21.60
2014,08,23,12,05,21.60
2014,08,23,12,06,21.60
2014,08,23,12,07,21.60
2014,08,23,12,08,21.60
2014,08,23,12,09,21.60
2014,08,23,12,10,21.60
2014,08,23,12,11,21.70
2014,08,23,12,12,21.70
2014,08,23,12,13,21.70
2014,08,23,12,14,21.70
2014,08,23,12,15,21.70
2014,08,23,12,16,21.70
2014,08,23,12,17,21.60
2014,08,23,12,18,21.60
2014,08,23,12,19,21.60
2014,08,23,12,20,21.50
2014,08,23,12,21,21.60
2014,08,23,12,22,21.60
2014,08,23,12,23,21.60
2014,08,23,12,24,21.60
2014,08,23,12,25,21.60
2014,08,23,12,26,21.70
2014,08,23,12,27,21.70
2014,08,23,12,28,21.70
2014,08,23,12,29,21.70
2014,08,23,12,30,21.70
2014,08,23,12,31,21.80
2014,08,23,12,32,21.80
2014,08,23,12,33,21.90
2014,08,23,12,34,21.90
2014,08,23,12,35,21.90
2014,08,23,12,36,22.00
2014,08,23,12,37,22.00
2014,08,23,12,38,22.00
2014,08,23,12,39,22.10
2014,08,23,12,40,22.10
2014,08,23,12,41,22.10
2014,08,23,12,42,22.20
2014,08,23,12,43,22.30
2014,08,23,12,44,22.40
2014,08,23,12,45,22.50
2014,08,23,12,46,22.60
2014,08,23,12,47,22.60
2014,08,23,12,48,22.60
2014,08,23,12,49,22.70
2014,08,23,12,50,22.70
2014,08,23,12,51,22.70
2014,08,23,12,52,22.70
2014,08,23,12,53,22.70
2014,08,23,12,54,22.70
2014,08,23,12,55,22.70
2014,08,23,12,56,22.80
2014,08,23,12,57,22.80
2014,08,23,12,58,22.90
2014,08,23,12,59,22.90
2014,08,23,13,00,22.90
2014,08,23,13,01,23.00
2014,08,23,13,02,23.00
2014,08,23,13,03,23.00
2014,08,23,13,04,23.00
2014,08,23,13,05,23.00
2014,08,23,13,06,23.10
2014,08,23,13,07,23.10
2014,08,23,13,08,23.10
2014,08,23,13,09,23.10
2014,08,23,13,10,23.10
2014,08,23,13,11,23.10
2014,08,23,13,12,23.10
2014,08,23,13,13,23.20
2014,08,23,13,14,23.20
2014,08,23,13,15,23.20
2014,08,23,13,16,23.20
2014,08,23,13,17,23.30
2014,08,23,13,18,23.30
2014,08,23,13,19,23.30
2014,08,23,13,20,23.40
2014,08,23,13,21,23.40
2014,08,23,13,22,23.40
2014,08,23,13,23,23.30
2014,08,23,13,24,23.40
2014,08,23,13,25,23.40
2014,08,23,13,26,23.30
2014,08,23,13,27,23.20
2014,08,23,13,28,23.20
2014,08,23,13,29,23.20
2014,08,23,13,30,23.30
2014,08,23,13,31,23.30
2014,08,23,13,32,23.30
2014,08,23,13,33,23.40
2014,08,23,13,34,23.30
2014,08,23,13,35,23.40
2014,08,23,13,36,23.40
2014,08,23,13,37,23.40
2014,08,23,13,38,23.30
2014,08,23,13,39,23.30
2014,08,23,13,40,23.30
2014,08,23,13,41,23.30
2014,08,23,13,42,23.30
2014,08,23,13,43,23.30
2014,08,23,13,44,23.30
2014,08,23,13,45,23.30
2014,08,23,13,46,23.30
2014,08,23,13,47,23.30
2014,08,23,13,48,23.30
2014,08,23,13,49,23.30
2014,08,23,13,50,23.30
2014,08,23,13,51,23.30
2014,08,23,13,52,23.40
2014,08,23,13,53,23.40
2014,08,23,13,54,23.40
2014,08,23,13,55,23.40
2014,08,23,13,56,23.40
2014,08,23,13,57,23.30
2014,08,23,13,58,23.30
2014,08,23,13,59,23.30
2014,08,23,14,00,23.30
2014,08,23,14,01,23.40
2014,08,23,14,02,23.40
2014,08,23,14,03,23.40
2014,08,23,14,04,23.40
2014,08,23,14,05,23.50
2014,08,23,14,06,23.50
2014,08,23,14,07,23.50
2014,08,23,14,08,23.60
2014,08,23,14,09,23.60
2014,08,23,14,10,23.70
2014,08,23,14,11,23.70
2014,08,23,14,12,23.70
2014,08,23,14,13,23.70
2014,08,23,14,14,23.80
2014,08,23,14,15,23.80
2014,08,23,14,16,23.80
2014,08,23,14,17,23.80
2014,08,23,14,18,23.80
2014,08,23,14,19,23.80
2014,08,23,14,20,23.80
2014,08,23,14,21,23.80
2014,08,23,14,22,23.80
2014,08,23,14,23,23.80
2014,08,23,14,24,23.80
2014,08,23,14,25,23.80
2014,08,23,14,26,23.80
2014,08,23,14,27,23.80
2014,08,23,14,28,23.90
2014,08,23,14,29,23.90
2014,08,23,14,30,23.90
2014,08,23,14,31,23.90
2014,08,23,14,32,23.90
2014,08,23,14,33,23.90
2014,08,23,14,34,23.90
2014,08,23,14,35,23.80
2014,08,23,14,36,23.80
2014,08,23,14,37,23.80
2014,08,23,14,38,23.70
2014,08,23,14,39,23.70
2014,08,23,14,40,23.70
2014,08,23,14,41,23.60
2014,08,23,14,42,23.60
2014,08,23,14,43,23.60
2014,08,23,14,44,23.60
2014,08,23,14,45,23.60
2014,08,23,14,46,23.60
2014,08,23,14,47,23.70
2014,08,23,14,48,23.80
2014,08,23,14,49,23.90
2014,08,23,14,50,24.00
2014,08,23,14,51,24.00
2014,08,23,14,52,24.10
2014,08,23,14,53,24.10
2014,08,23,14,54,24.10
2014,08,23,14,55,24.20
2014,08,23,14,56,24.20
2014,08,23,14,57,24.20
2014,08,23,14,58,24.20
2014,08,23,14,59,24.30
2014,08,23,15,00,24.30
2014,08,23,15,01,24.30
2014,08,23,15,02,24.40
2014,08,23,15,03,24.50
2014,08,23,15,04,24.60
2014,08,23,15,05,24.70
2014,08,23,15,06,24.70
2014,08,23,15,07,24.80
2014,08,23,15,08,24.80
2014,08,23,15,09,24.80
2014,08,23,15,10,24.80
2014,08,23,15,11,24.80
2014,08,23,15,12,24.80
2014,08,23,15,13,24.90
2014,08,23,15,14,25.00
2014,08,23,15,15,25.10
2014,08,23,15,16,25.20
2014,08,23,15,17,25.30
2014,08,23,15,18,25.30
2014,08,23,15,19,25.40
2014,08,23,15,20,25.50
2014,08,23,15,21,25.50
2014,08,23,15,22,25.60
2014,08,23,15,23,25.60
2014,08,23,15,24,25.60
2014,08,23,15,25,25.50
2014,08,23,15,26,25.40
2014,08,23,15,27,25.40
2014,08,23,15,28,25.30
2014,08,23,15,29,25.30
2014,08,23,15,30,25.20
2014,08,23,15,31,25.10
2014,08,23,15,32,25.10
2014,08,23,15,33,25.10
2014,08,23,15,34,25.00
2014,08,23,15,35,25.00
2014,08,23,15,36,24.90
2014,08,23,15,37,24.80
2014,08,23,15,38,24.80
2014,08,23,15,39,24.80
2014,08,23,15,40,24.80
2014,08,23,15,41,24.80
2014,08,23,15,42,24.80
2014,08,23,15,43,24.70
2014,08,23,15,44,24.70
2014,08,23,15,45,24.70
2014,08,23,15,46,24.60
2014,08,23,15,47,24.60
2014,08,23,15,48,24.60
2014,08,23,15,49,24.50
2014,08,23,15,50,24.50
2014,08,23,15,51,24.40
2014,08,23,15,52,24.40
2014,08,23,15,53,24.40
2014,08,23,15,54,24.40
2014,08,23,15,55,24.40
2014,08,23,15,56,24.40
2014,08,23,15,57,24.40
2014,08,23,15,58,24.40
2014,08,23,15,59,24.40
2014,08,23,16,00,24.40
2014,08,23,16,01,24.40
2014,08,23,16,02,24.40
2014,08,23,16,03,24.40
2014,08,23,16,04,24.40
2014,08,23,16,05,24.40
2014,08,23,16,06,24.40
2014,08,23,16,07,24.40
2014,08,23,16,08,24.40
2014,08,23,16,09,24.40
2014,08,23,16,10,24.40
2014,08,23,16,11,24.50
2014,08,23,16,12,24.50
2014,08,23,16,13,24.40
2014,08,23,16,14,24.40
2014,08,23,16,15,24.40
2014,08,23,16,16,24.40
2014,08,23,16,17,24.50
2014,08,23,16,18,24.50
2014,08,23,16,19,24.50
2014,08,23,16,20,24.50
2014,08,23,16,21,24.60
2014,08,23,16,22,24.60
2014,08,23,16,23,24.60
2014,08,23,16,24,24.60
2014,08,23,16,25,24.70
2014,08,23,16,26,24.70
2014,08,23,16,27,24.70
2014,08,23,16,28,24.70
2014,08,23,16,29,24.70
2014,08,23,16,30,24.80
2014,08,23,16,31,24.80
2014,08,23,16,32,24.80
2014,08,23,16,33,24.80
2014,08,23,16,34,24.80
2014,08,23,16,35,24.80
2014,08,23,16,36,24.80
2014,08,23,16,37,24.80
2014,08,23,16,38,24.80
2014,08,23,16,39,24.80
2014,08,23,16,40,24.80
2014,08,23,16,41,24.80
2014,08,23,16,42,24.80
2014,08,23,16,43,24.80
2014,08,23,16,44,24.80
2014,08,23,16,45,24.80
2014,08,23,16,46,24.80
2014,08,23,16,47,24.80
2014,08,23,16,48,24.80
2014,08,23,16,49,24.80
2014,08,23,16,50,24.80
2014,08,23,16,51,24.90
2014,08,23,16,52,24.90
2014,08,23,16,53,24.90
2014,08,23,16,54,24.90
2014,08,23,16,55,24.90
2014,08,23,16,56,24.90
2014,08,23,16,57,24.90
2014,08,23,16,58,24.90
2014,08,23,16,59,24.90
2014,08,23,17,00,24.90
2014,08,23,17,01,24.90
2014,08,23,17,02,24.90
2014,08,23,17,03,25.00
2014,08,23,17,04,25.00
2014,08,23,17,05,25.10
2014,08,23,17,06,25.10
2014,08,23,17,07,25.20
2014,08,23,17,08,25.30
2014,08,23,17,09,25.30
2014,08,23,17,10,25.30
2014,08,23,17,11,25.40
2014,08,23,17,12,25.40
2014,08,23,17,13,25.50
2014,08,23,17,14,25.50
2014,08,23,17,15,25.60
2014,08,23,17,16,25.60
2014,08,23,17,17,25.60
2014,08,23,17,18,25.60
2014,08,23,17,19,25.50